| time (UTC) | temp F | wind direction | speed MPH | gust MPH | rain 1hr in | rain 24hr in | rain mn in | humidity % | barometer mb |
| 20260507172038 | 51 | 252 | 5.0 | 14.0 | 0.00 | 0.00 | 0.00 | 44 | 1007.0 |
| 20260507171018 | 51 | 262 | 5.0 | 13.0 | 0.00 | 0.00 | 0.00 | 45 | 1007.0 |
| 20260507170020 | 51 | 313 | 5.0 | 11.0 | 0.00 | 0.00 | 0.00 | 45 | 1007.1 |
| 20260507165017 | 51 | 302 | 6.0 | 13.0 | 0.00 | 0.00 | 0.00 | 46 | 1007.1 |
| 20260507164020 | 52 | 270 | 5.0 | 14.0 | 0.00 | 0.00 | 0.00 | 45 | 1007.3 |
| 20260507163019 | 52 | 286 | 5.0 | 11.0 | 0.00 | 0.00 | 0.00 | 45 | 1007.2 |
| 20260507162019 | 52 | 285 | 6.0 | 13.0 | 0.00 | 0.00 | 0.00 | 45 | 1007.2 |
| 20260507161037 | 51 | 217 | 6.0 | 12.0 | 0.00 | 0.00 | 0.00 | 49 | 1007.3 |
| 20260507160020 | 51 | 223 | 5.0 | 11.0 | 0.00 | 0.00 | 0.00 | 52 | 1007.3 |
| 20260507155019 | 51 | 262 | 5.0 | 14.0 | 0.00 | 0.00 | 0.00 | 54 | 1007.4 |
| 20260507154017 | 50 | 277 | 6.0 | 13.0 | 0.00 | 0.00 | 0.00 | 54 | 1007.4 |
| 20260507153017 | 49 | 239 | 5.0 | 12.0 | 0.00 | 0.00 | 0.00 | 57 | 1007.4 |
| 20260507152100 | 49 | 268 | 6.0 | 12.0 | 0.00 | 0.00 | 0.00 | 57 | 1007.4 |
| 20260507151020 | 49 | 242 | 5.0 | 13.0 | 0.00 | 0.00 | 0.00 | 57 | 1007.3 |
| 20260507150018 | 48 | 286 | 4.0 | 10.0 | 0.00 | 0.00 | 0.00 | 59 | 1007.4 |
| 20260507145019 | 48 | 252 | 4.0 | 10.0 | 0.00 | 0.00 | 0.00 | 60 | 1007.4 |
| 20260507144020 | 48 | 216 | 5.0 | 9.0 | 0.00 | 0.00 | 0.00 | 61 | 1007.4 |
| 20260507143019 | 48 | 220 | 5.0 | 12.0 | 0.00 | 0.00 | 0.00 | 61 | 1007.4 |
| 20260507142018 | 48 | 211 | 5.0 | 9.0 | 0.00 | 0.00 | 0.00 | 61 | 1007.4 |
| 20260507141018 | 47 | 216 | 4.0 | 8.0 | 0.00 | 0.00 | 0.00 | 62 | 1007.4 |
| 20260507140019 | 47 | 230 | 4.0 | 11.0 | 0.00 | 0.00 | 0.00 | 62 | 1007.4 |
| 20260507135039 | 46 | 213 | 5.0 | 11.0 | 0.00 | 0.00 | 0.00 | 63 | 1007.5 |
| 20260507134019 | 46 | 219 | 5.0 | 9.0 | 0.00 | 0.00 | 0.00 | 64 | 1007.5 |
| 20260507133019 | 47 | 221 | 5.0 | 10.0 | 0.00 | 0.00 | 0.00 | 63 | 1007.5 |
| 20260507132019 | 46 | 240 | 4.0 | 8.0 | 0.00 | 0.00 | 0.00 | 64 | 1007.5 |
| 20260507131040 | 45 | 203 | 5.0 | 11.0 | 0.00 | 0.00 | 0.00 | 64 | 1007.5 |
| 20260507130017 | 45 | 260 | 4.0 | 11.0 | 0.00 | 0.00 | 0.00 | 65 | 1007.7 |
| 20260507125020 | 45 | 266 | 5.0 | 16.0 | 0.00 | 0.00 | 0.00 | 65 | 1007.7 |
| 20260507124017 | 45 | 287 | 5.0 | 13.0 | 0.00 | 0.00 | 0.00 | 65 | 1007.6 |
| 20260507123017 | 45 | 280 | 5.0 | 11.0 | 0.00 | 0.00 | 0.00 | 66 | 1007.7 |
| 20260507122021 | 43 | 245 | 4.0 | 8.0 | 0.00 | 0.00 | 0.00 | 68 | 1007.7 |
| 20260507121040 | 43 | 266 | 4.0 | 10.0 | 0.00 | 0.00 | 0.00 | 69 | 1007.7 |
| 20260507120017 | 44 | 254 | 4.0 | 7.0 | 0.00 | 0.00 | 0.00 | 69 | 1007.6 |
| 20260507115019 | 44 | 242 | 4.0 | 9.0 | 0.00 | 0.00 | 0.00 | 69 | 1007.7 |
| 20260507114017 | 44 | 276 | 6.0 | 16.0 | 0.00 | 0.00 | 0.00 | 69 | 1007.7 |
| 20260507113018 | 45 | 246 | 4.0 | 13.0 | 0.00 | 0.00 | 0.00 | 68 | 1007.7 |
| 20260507112018 | 45 | 253 | 4.0 | 8.0 | 0.00 | 0.00 | 0.00 | 69 | 1007.5 |
| 20260507111018 | 46 | 224 | 4.0 | 9.0 | 0.00 | 0.00 | 0.00 | 78 | 1007.3 |
| 20260507110018 | 46 | 217 | 4.0 | 9.0 | 0.00 | 0.00 | 0.00 | 80 | 1007.1 |
| 20260507105018 | 45 | 202 | 3.0 | 6.0 | 0.00 | 0.00 | 0.00 | 81 | 1007.0 |
| 20260507104039 | 45 | 211 | 4.0 | 9.0 | 0.00 | 0.00 | 0.00 | 81 | 1006.9 |
| 20260507103040 | 45 | 227 | 4.0 | 8.0 | 0.00 | 0.00 | 0.00 | 84 | 1006.8 |
| 20260507102025 | 45 | 261 | 3.0 | 8.0 | 0.00 | 0.00 | 0.00 | 85 | 1007.0 |
| 20260507101020 | 45 | 256 | 3.0 | 6.0 | 0.00 | 0.00 | 0.00 | 82 | 1007.0 |
| 20260507100020 | 46 | 209 | 4.0 | 7.0 | 0.00 | 0.00 | 0.00 | 83 | 1007.0 |
| 20260507095019 | 46 | 212 | 3.0 | 6.0 | 0.00 | 0.00 | 0.00 | 84 | 1007.1 |
| 20260507094020 | 46 | 221 | 4.0 | 8.0 | 0.00 | 0.00 | 0.00 | 85 | 1007.1 |
| 20260507093021 | 46 | 243 | 3.0 | 8.0 | 0.00 | 0.00 | 0.00 | 86 | 1007.0 |
| 20260507092019 | 46 | 237 | 3.0 | 6.0 | 0.00 | 0.00 | 0.00 | 86 | 1006.9 |
| 20260507091020 | 46 | 200 | 3.0 | 7.0 | 0.00 | 0.00 | 0.00 | 86 | 1006.9 |
| 20260507090020 | 46 | 245 | 3.0 | 6.0 | 0.00 | 0.00 | 0.00 | 86 | 1006.8 |
| 20260507085024 | 46 | 217 | 3.0 | 5.0 | 0.00 | 0.00 | 0.00 | 87 | 1006.8 |
| 20260507084025 | 46 | 214 | 2.0 | 3.0 | 0.00 | 0.00 | 0.00 | 87 | 1006.9 |
| 20260507083021 | 46 | 222 | 3.0 | 8.0 | 0.00 | 0.00 | 0.00 | 87 | 1006.9 |
| 20260507082107 | 46 | 235 | 2.0 | 5.0 | 0.00 | 0.00 | 0.00 | 87 | 1007.1 |
| 20260507081027 | 46 | 224 | 2.0 | 5.0 | 0.00 | 0.00 | 0.00 | 87 | 1007.2 |
| 20260507080021 | 46 | 199 | 2.0 | 7.0 | 0.00 | 0.00 | 0.00 | 86 | 1007.2 |
| 20260507075021 | 46 | 212 | 3.0 | 4.0 | 0.00 | 0.00 | 0.00 | 86 | 1007.3 |
| 20260507074027 | 46 | 251 | 3.0 | 5.0 | 0.00 | 0.00 | 0.00 | 86 | 1007.3 |
| 20260507073026 | 46 | 208 | 2.0 | 5.0 | 0.00 | 0.00 | 0.00 | 85 | 1007.3 |
| 20260507072046 | 46 | 236 | 1.0 | 4.0 | 0.00 | 0.00 | 0.00 | 85 | 1007.3 |
| 20260507071026 | 46 | 238 | 2.0 | 5.0 | 0.00 | 0.00 | 0.00 | 84 | 1007.2 |
| 20260507070047 | 46 | 234 | 2.0 | 4.0 | 0.00 | 0.00 | 0.00 | 84 | 1007.2 |
| 20260507065021 | 46 | 267 | 3.0 | 8.0 | 0.00 | 0.00 | 0.00 | 83 | 1007.2 |
| 20260507064027 | 46 | 275 | 3.0 | 5.0 | 0.00 | 0.00 | 0.00 | 83 | 1007.3 |
| 20260507063022 | 46 | 238 | 3.0 | 7.0 | 0.00 | 0.00 | 0.00 | 82 | 1007.3 |
| 20260507062022 | 46 | 270 | 3.0 | 7.0 | 0.00 | 0.00 | 0.00 | 83 | 1007.4 |
| 20260507061027 | 46 | 292 | 2.0 | 6.0 | 0.00 | 0.00 | 0.00 | 83 | 1007.5 |
| 20260507060022 | 46 | 257 | 2.0 | 5.0 | 0.00 | 0.00 | 0.00 | 83 | 1007.5 |
| 20260507055022 | 45 | 256 | 3.0 | 7.0 | 0.00 | 0.00 | 0.00 | 83 | 1007.7 |
| 20260507054028 | 45 | 242 | 2.0 | 6.0 | 0.00 | 0.00 | 0.00 | 83 | 1007.8 |
| 20260507053023 | 45 | 285 | 2.0 | 6.0 | 0.00 | 0.00 | 0.00 | 83 | 1007.8 |
| 20260507052027 | 45 | 306 | 2.0 | 4.0 | 0.00 | 0.00 | 0.00 | 83 | 1007.9 |
| 20260507051017 | 45 | 286 | 3.0 | 6.0 | 0.00 | 0.00 | 0.00 | 83 | 1008.0 |
| 20260507050027 | 46 | 273 | 2.0 | 5.0 | 0.00 | 0.00 | 0.00 | 83 | 1008.2 |
| 20260507045023 | 46 | 240 | 2.0 | 6.0 | 0.00 | 0.00 | 0.00 | 83 | 1008.4 |
| 20260507044017 | 45 | 252 | 3.0 | 7.0 | 0.00 | 0.00 | 0.00 | 83 | 1008.5 |
| 20260507043017 | 45 | 283 | 2.0 | 5.0 | 0.00 | 0.00 | 0.00 | 84 | 1008.5 |
| 20260507042028 | 45 | 257 | 2.0 | 4.0 | 0.00 | 0.00 | 0.00 | 84 | 1008.6 |
| 20260507041028 | 45 | 227 | 2.0 | 5.0 | 0.00 | 0.00 | 0.00 | 84 | 1008.7 |
| 20260507040018 | 45 | 252 | 2.0 | 4.0 | 0.00 | 0.00 | 0.00 | 86 | 1008.7 |
| 20260507035028 | 45 | 286 | 2.0 | 3.0 | 0.00 | 0.00 | 0.00 | 87 | 1008.7 |
| 20260507034029 | 45 | 203 | 2.0 | 3.0 | 0.00 | 0.00 | 0.00 | 87 | 1008.8 |
| 20260507033028 | 45 | 208 | 2.0 | 3.0 | 0.00 | 0.00 | 0.00 | 87 | 1008.9 |
| 20260507032028 | 45 | 200 | 2.0 | 2.0 | 0.00 | 0.00 | 0.00 | 85 | 1009.0 |
| 20260507031029 | 46 | 209 | 1.0 | 3.0 | 0.00 | 0.00 | 0.00 | 84 | 1009.1 |
| 20260507030049 | 46 | 207 | 2.0 | 3.0 | 0.00 | 0.00 | 0.00 | 82 | 1009.2 |
| 20260507025029 | 46 | 212 | 2.0 | 4.0 | 0.00 | 0.00 | 0.00 | 83 | 1009.1 |
| 20260507024051 | 46 | 226 | 2.0 | 4.0 | 0.00 | 0.00 | 0.00 | 82 | 1009.1 |
| 20260507023029 | 46 | 212 | 1.0 | 2.0 | 0.00 | 0.00 | 0.00 | 82 | 1009.2 |
| 20260507022029 | 46 | 249 | 2.0 | 4.0 | 0.00 | 0.00 | 0.00 | 81 | 1009.2 |
| 20260507021030 | 46 | 245 | 2.0 | 4.0 | 0.00 | 0.00 | 0.00 | 80 | 1009.4 |
| 20260507020031 | 46 | 224 | 2.0 | 3.0 | 0.00 | 0.00 | 0.00 | 79 | 1009.4 |
| 20260507015110 | 46 | 293 | 2.0 | 4.0 | 0.00 | 0.00 | 0.00 | 81 | 1009.5 |
| 20260507014017 | 46 | 220 | 1.0 | 3.0 | 0.00 | 0.00 | 0.00 | 81 | 1009.5 |
| 20260507013017 | 46 | 204 | 1.0 | 4.0 | 0.00 | 0.00 | 0.00 | 81 | 1009.6 |
| 20260507012032 | 46 | 221 | 1.0 | 3.0 | 0.00 | 0.00 | 0.00 | 80 | 1009.5 |
| 20260507011031 | 46 | 212 | 2.0 | 3.0 | 0.00 | 0.00 | 0.00 | 81 | 1009.5 |
| 20260507010018 | 46 | 215 | 2.0 | 4.0 | 0.00 | 0.00 | 0.00 | 81 | 1009.3 |
| 20260507005018 | 46 | 222 | 2.0 | 4.0 | 0.00 | 0.00 | 0.00 | 82 | 1009.4 |
| 20260507004017 | 46 | 217 | 1.0 | 3.0 | 0.00 | 0.00 | 0.00 | 81 | 1009.2 |
| 20260507003018 | 46 | 214 | 2.0 | 4.0 | 0.00 | 0.00 | 0.00 | 80 | 1009.0 |
| 20260507002018 | 47 | 213 | 1.0 | 3.0 | 0.00 | 0.00 | 0.00 | 79 | 1008.9 |
| 20260507001018 | 47 | 216 | 2.0 | 4.0 | 0.00 | 0.00 | 0.00 | 79 | 1008.9 |
| 20260507000019 | 47 | 219 | 1.0 | 5.0 | 0.00 | 0.00 | 0.00 | 79 | 1008.9 |
| 20260506235019 | 47 | 218 | 1.0 | 3.0 | 0.00 | 0.00 | 0.00 | 78 | 1008.8 |
| 20260506234019 | 47 | 235 | 2.0 | 4.0 | 0.00 | 0.00 | 0.00 | 77 | 1008.8 |
| 20260506233016 | 47 | 298 | 1.0 | 4.0 | 0.00 | 0.00 | 0.00 | 76 | 1008.7 |
| 20260506232019 | 48 | 269 | 1.0 | 5.0 | 0.00 | 0.00 | 0.00 | 76 | 1008.6 |
| 20260506231020 | 48 | 254 | 2.0 | 4.0 | 0.00 | 0.00 | 0.00 | 74 | 1008.5 |
| 20260506230021 | 48 | 241 | 2.0 | 5.0 | 0.00 | 0.00 | 0.00 | 75 | 1008.5 |
| 20260506225039 | 48 | 297 | 1.0 | 3.0 | 0.00 | 0.00 | 0.00 | 75 | 1008.6 |
| 20260506224020 | 48 | 233 | 1.0 | 4.0 | 0.00 | 0.00 | 0.00 | 75 | 1008.6 |
| 20260506223021 | 48 | 242 | 2.0 | 5.0 | 0.00 | 0.00 | 0.00 | 75 | 1008.7 |
| 20260506222039 | 49 | 317 | 3.0 | 6.0 | 0.00 | 0.00 | 0.00 | 74 | 1008.7 |
| 20260506221017 | 49 | 302 | 2.0 | 4.0 | 0.00 | 0.00 | 0.00 | 74 | 1008.7 |
| 20260506220019 | 48 | 319 | 2.0 | 4.0 | 0.00 | 0.00 | 0.00 | 75 | 1008.7 |
| 20260506215018 | 48 | 219 | 2.0 | 6.0 | 0.00 | 0.00 | 0.00 | 75 | 1008.7 |
| 20260506214018 | 48 | 313 | 2.0 | 4.0 | 0.00 | 0.00 | 0.00 | 75 | 1008.6 |
| 20260506213018 | 47 | 315 | 2.0 | 4.0 | 0.00 | 0.00 | 0.00 | 77 | 1008.7 |
| 20260506212019 | 47 | 287 | 1.0 | 3.0 | 0.00 | 0.00 | 0.00 | 78 | 1008.6 |
| 20260506211020 | 47 | 274 | 1.0 | 3.0 | 0.00 | 0.00 | 0.00 | 79 | 1008.8 |
| 20260506210019 | 47 | 238 | 2.0 | 4.0 | 0.00 | 0.00 | 0.00 | 78 | 1009.0 |
| 20260506205019 | 47 | 232 | 2.0 | 4.0 | 0.00 | 0.00 | 0.00 | 79 | 1008.9 |
| 20260506204039 | 47 | 289 | 1.0 | 3.0 | 0.00 | 0.00 | 0.00 | 79 | 1008.9 |
| 20260506203020 | 47 | 305 | 2.0 | 4.0 | 0.00 | 0.00 | 0.00 | 78 | 1009.0 |
| 20260506202039 | 47 | 266 | 2.0 | 5.0 | 0.00 | 0.00 | 0.00 | 79 | 1009.0 |
| 20260506201016 | 47 | 316 | 3.0 | 7.0 | 0.00 | 0.00 | 0.00 | 78 | 1009.0 |
| 20260506200019 | 47 | 319 | 2.0 | 5.0 | 0.00 | 0.00 | 0.00 | 79 | 1009.0 |
| 20260506195020 | 47 | 273 | 1.0 | 2.0 | 0.00 | 0.00 | 0.00 | 79 | 1009.2 |
| 20260506194024 | 46 | 290 | 1.0 | 2.0 | 0.00 | 0.00 | 0.00 | 79 | 1009.3 |
| 20260506193023 | 46 | 266 | 2.0 | 3.0 | 0.00 | 0.00 | 0.00 | 80 | 1009.4 |
| 20260506192023 | 46 | 324 | 2.0 | 3.0 | 0.00 | 0.00 | 0.00 | 81 | 1009.4 |
| 20260506191045 | 46 | 313 | 3.0 | 5.0 | 0.00 | 0.00 | 0.00 | 81 | 1009.3 |
| 20260506190025 | 46 | 255 | 1.0 | 2.0 | 0.00 | 0.00 | 0.00 | 78 | 1009.3 |
| 20260506185024 | 46 | 0.0 | 0.0 | 0.00 | 0.00 | 0.00 | 79 | 1009.3 | |
| 20260506184025 | 45 | 172 | 2.0 | 3.0 | 0.00 | 0.00 | 0.00 | 80 | 1009.1 |
| 20260506183024 | 46 | 196 | 1.0 | 3.0 | 0.00 | 0.00 | 0.00 | 83 | 1009.2 |
| 20260506182024 | 45 | 213 | 2.0 | 4.0 | 0.00 | 0.00 | 0.00 | 85 | 1009.1 |
| 20260506181024 | 45 | 206 | 2.0 | 4.0 | 0.00 | 0.00 | 0.00 | 87 | 1009.3 |
| 20260506180024 | 45 | 181 | 2.0 | 4.0 | 0.00 | 0.00 | 0.00 | 88 | 1009.5 |
| 20260506175045 | 45 | 209 | 1.0 | 2.0 | 0.00 | 0.00 | 0.00 | 86 | 1009.7 |
| 20260506174026 | 44 | 222 | 2.0 | 3.0 | 0.00 | 0.00 | 0.00 | 85 | 1009.7 |
| 20260506173025 | 44 | 237 | 1.0 | 2.0 | 0.00 | 0.00 | 0.00 | 88 | 1009.9 |